STARLINK-32500, 61935

Orbit data source: Space-Track

STARLINK-32500, 61935 is a payload satellite owned by SpaceX/Seattle (US) in LEO that was launched on Mon, 11 Nov 2024 UTC via an FALCON 9 launch vehicle from the Air Force Eastern Test Range (AFETR). Payload-class satellites include a variety of spacecraft equipped with specific instruments for various scientific and technological missions. These include communications satellites like Starlink; space stations such as the ISS; scientific satellites like the Hubble; Earth observation satellites from companies like Planet Labs, Umbra, and HawkEye 360; GPS; miniature CubeSats for education and research; and military/defense satellites.

Loading next visibility...
Identifier
61935, 2024-207Z
Orbit
LEO
Country
Flag of USUS
Related business
Manufacturer
SpaceX/Seattle
Mission
Operational Commercial Communications
Bus & Motor
STARLINK V2M, Unknown motor
Mass
730 kg wet, ~700 kg dry
Launch date (UTC)
2024-11-11 (2 years ago)
Launch vehicle
FALCON 9
Launch site
Air Force Eastern Test Range (AFETR)
Object type
Payload
Rocket body
Debris
Shape & HBR
Box + 2 Pan, 17.7 m
Radar Cross Section
33.884 m², Large (>1 m²)

Expand to show TLE details & history
Last TLE update: 18 hours ago

TLE from 18 hours ago
0 STARLINK-32500
1 61935U 24207Z   26145.21465155  .00012690  00000-0  46974-3 0  9997
2 61935  42.9943 213.1908 0000765 299.6317  60.4458 15.27587746 86380
Epoch: 2026-05-25T05:09Z
TLE epoch observation values (Epoch: 2026-05-25T05:09:05.893Z)
Latitude
-0.00006°
Longitude
-106.88947°
Altitude
482.542 km
Speed
7.626 km/s
True Right ascension
14h 12m 45s
True Declination
0° 00' 00"
Sunlit
Object was in full shadow at epoch
Visualization orbit readout
Latitude
Unknown
Longitude
Unknown
Altitude
Unknown
Speed
Unknown
Apparent Right ascension
Unknown
Apparent Declination
Unknown
Sunlit
N/A
Visualization observer readout
Local Sidereal Time
08:10:18
Azimuth
Unknown
Elevation
Unknown
Doppler factor
Unknown
Orbital elements
Apogee altitude
485.497 km
Perigee altitude
484.447 km
Semi-major axis
6,863.109 km
Eccentricity
0.00008
Inclination
42.9943°
RAAN
213.1908°
Arg. of periapsis
299.6317°
True anomaly
60.45343°
Mean anomaly
60.4458°
Eccentric anomaly
60.44961°
Mean motion
3.81735 °/min
Orbital period
94.31 mins
BSTAR
0.00046974
Loading maneuver chart data...
Computing Atmospheric mass density...
Loading historical data...
Loading historical data...
Loading historical data...
Loading historical data...
Loading historical data...
Loading historical data...
Loading historical data...

Documentation

Showing up to 5 results
|